Location: Unspecified
(0.0000°N, 0.0000°E)
Time: 18:12:50
(UTC+00:00)

MetOp-A - Pass Details

Date: 03 August 2021
Orbit: 819 x 821 km, 98.5° (Epoch: 26 September)

Event Time Altitude Azimuth Distance (km) Brightness Sun altitude
Exits shadow 19:54:11 72° 92° (E) 860 4.0 -25.7°
Maximum altitude 19:54:20 73° 78° (ENE) 858 4.0 -25.7°
Drops below altitude 10° 19:59:38 10° 354° (N) 2,407 6.8 -27.0°
Sets 20:01:59 0° 352° (N) 3,337 7.7 -27.5°
